High Desert Yearling Classic - Total Inventory 2017

Station: INVENTORY - T Race

Distance: 10 Miles    

Release: 03-Jul-2017 08:15

Weather Release:    Arrival:

Wind at Release:     Wind at Arrival:

Temp at Release: °    Temp at Arrival: °

Lofts: 86

Birds: 177

Clocked: 171

Good Luck to Everyone!
Drops Pos Breeder Pigeon Name Color Sex Ent Arrival Speed To Win Eligible
101 Scott/Carol Team - UT 0360-AU17-DWI BB H 1 09:43:57.00 197.864 00:53:44 Yes
102 Mario Rodriguez - AZ 15911-AU17-ARPU BB H 2 09:44:14.00 197.236 00:54:01 Yes
103 Best Loft - IL 1621-AU17-CHI BBWF H 3 09:46:41.00 191.965 00:56:28 Yes
104 Arendonk West - CA 26822-AU17-AA BB H 1 09:47:32.00 190.202 00:57:19 Yes
105 Scott/Carol Team - UT 0353-AU17-DWI BBWF H 2 09:48:38.00 187.967 00:58:25 Yes
106 Ed Kehl - UT 0383-AU17-WFA BB H 3 09:51:39.00 182.100 01:01:26 Yes
107 Arendonk West - CA 26835-AU17-AA DC H 2 09:52:13.00 181.039 01:02:00 Yes
108 Bert Bruno - UT 11475-IF17-FOYS BBWF H 1 09:52:19.00 180.853 01:02:06 Yes
109 Steve Beier - AZ 0416-AU17-IDA BB H 5 09:52:57.00 179.684 01:02:44 Missing
110 Chick Clayton - ID 0726-AU17-IDA BB H 2 09:53:34.00 178.559 01:03:21 Yes
111 3 Stars & A Sun Loft - TX 0773-AU17-LS BB H 1 09:53:52.00 178.018 01:03:39 Yes
112 Mario Rodriguez - AZ 15907-AU17-ARPU BC H 3 09:55:57.00 174.344 01:05:44 Yes
113 Ed Kehl - UT 0384-AU17-WFA BBWF H 4 09:56:08.00 174.028 01:05:55 Yes
114 Scott / Morrison - UT 0352-AU17-DWI BB H 1 09:57:03.00 172.464 01:06:50 Yes
115 Joe Zarachowicz - MD 2259-IF17-CCC BB H 5 09:57:41.00 171.401 01:07:28 Yes
116 Spring Break Race - UT 11347-US17-IPB BBWF H 3 09:57:47.00 171.234 01:07:34 Yes
117 Jones Boys - UT 1180-AU17-SLI BB H 2 09:57:51.00 171.123 01:07:38 Yes
118 Arendonk West - CA 26810-AU17-AA BB H 3 09:58:17.00 170.405 01:08:04 Yes
119 Mario Rodriguez - AZ 15910-AU17-ARPU GRZ H 4 09:58:29.00 170.076 01:08:16 Yes
120 Vicstrom Loft - UT 46866-AU17-ARPU DCWF H 1 09:58:36.00 169.884 01:08:23 Yes
121 Jones Boys - UT 1192-AU17-SLI BB H 3 09:58:45.00 169.639 01:08:32 Yes
122 Scott/Carol Team - UT 0358-AU17-DWI BB H 3 09:59:09.00 168.987 01:08:56 Yes
123 Ed Kehl - UT 0392-AU17-WFA GRZ H 5 09:59:49.00 167.912 01:09:36 Yes
124 Flyhome Loft - CA 26380-AU17-ARPU BC H 8 10:01:00.00 166.038 01:10:47 Yes
125 Arendonk West - CA 26803-AU17-AA BB H 4 10:01:17.00 165.595 01:11:04 Yes
126 King Of The Hill - AZ 1165-AU17-SLI BCPD H 6 10:01:19.00 165.543 01:11:06 Yes
127 Scott/Carol Team - UT 0355-AU17-DWI BB H 4 10:01:24.00 165.414 01:11:11 Yes
128 Best Loft - IL 1666-AU17-CHI BB H 4 10:02:50.00 163.215 01:12:37 Yes
129 Jones Boys - UT 1181-AU17-SLI BB H 4 10:03:33.00 162.137 01:13:20 Yes
130 Jones Boys - UT 1188-AU17-SLI BC H 5 10:05:20.00 159.517 01:15:07 Yes
131 Spring Break Race - UT 11350-US17-IPB BB H 4 10:05:22.00 159.468 01:15:09 Yes
132 Rangel/Flores/Fregos - UT 0173-AU17-WFA BCWF H 6 10:05:40.00 159.036 01:15:27 Yes
133 Ed Kehl - UT 0387-AU17-WFA DCBK H 6 10:06:14.00 158.226 01:16:01 Yes
134 Ed Kehl - UT 0391-AU17-WFA BC H 7 10:06:40.00 157.612 01:16:27 Yes
135 Chick Clayton - ID 0733-AU17-IDA BBWF H 3 10:06:45.00 157.494 01:16:32 Yes
136 Ed Kehl - UT 0385-AU17-WFA DCPD H 8 10:06:54.00 157.283 01:16:41 Yes
137 - 0388-AU17-WFA 9 10:07:46.00 156.074 01:17:33
138 - 0359-AU17-DWI 5 10:08:01.00 155.729 01:17:48
139 Marian Taloi - OR 0211-AU17-OTC BBPD H 4 10:08:13.00 155.454 01:18:00 Yes
140 P N W Challenge - ID 7079-AU17-PNWC "555-57" BBWF H 1 10:09:00.00 154.386 01:18:47 Yes
141 3 Stars & A Sun Loft - TX 0025-AU17-3SS BC H 2 10:09:09.00 154.183 01:18:56 Yes
142 Spring Break Race - UT 16720-AU17-AA BB H 5 10:09:10.00 154.161 01:18:57 Yes
143 Racing Pigeon Mall - WA 0719-AU17-RPM BC H 1 10:10:08.00 152.866 01:19:55 Yes
144 K/N Loft - HI 40467-AU17-AA BB H 2 10:10:22.00 152.557 01:20:09 Yes
145 Mario Rodriguez - AZ 15905-AU17-ARPU BC H 5 10:10:40.00 152.161 01:20:27 Missing
146 Mario Rodriguez - AZ 15908-AU17-ARPU BB H 6 10:11:22.00 151.246 01:21:09 Missing
147 Stephen Brothers - CA 0764-AU17-COM DNCK H 1 10:11:35.00 150.965 01:21:22 Yes
148 P N W Challenge - ID 7067-AU17-PNWC "724-360" BBWF H 2 10:11:46.00 150.728 01:21:33 Yes
149 Steve Beier - AZ 0417-AU17-IDA BC H 6 10:11:59.00 150.449 01:21:46 Yes
150 Marian Taloi - OR 0233-AU17-OTC BB H 5 10:18:18.00 142.741 01:28:05 Yes
151 Bert Bruno - UT 11464-IF17-FOYS BC H 2 10:19:23.00 141.498 01:29:10 Yes
152 3 Stars & A Sun Loft - TX 0023-AU17-3SS BB H 3 10:21:50.00 138.765 01:31:37 Yes
153 Mario Rodriguez - AZ 15909-AU17-ARPU BB H 7 10:22:35.00 137.949 01:32:22 Yes
154 K/N Loft - HI 40461-AU17-AA DC H 3 10:23:12.00 137.285 01:32:59 Yes
155 Rodriguez Loft - TX 17692-AU17-WIN 29779x79 BB H 2 10:23:23.00 137.089 01:33:10 Yes
156 Jones Boys - UT 1167-AU17-SLI BC H 6 10:23:33.00 136.912 01:33:20 Yes
157 P N W Challenge - ID 7092-AU17-PNWC "555-211" BB H 3 10:23:54.00 136.540 01:33:41 Yes
158 Stephen Brothers - CA 0767-AU17-COM BB H 2 10:24:06.00 136.328 01:33:53 Yes
159 Arendonk West - CA 26821-AU17-AA BB H 5 10:26:00.00 134.351 01:35:47 Yes
160 Rebel Wings - UT 0357-AU17-DWI RC C 2 10:27:49.00 132.513 01:37:36 Yes
161 Scott / Morrison - UT 0356-AU17-DWI BC H 3 10:40:14.00 121.184 01:50:01 Yes
162 Joe Zarachowicz - MD 2267-IF17-CCC BBSP H 6 11:46:41.00 83.143 02:56:28 Yes
163 Ed Kehl - UT 0390-AU17-WFA WGRZ H 10 11:47:16.00 82.915 02:57:03 Yes
164 Racing Pigeon Mall - WA 0720-AU17-RPM BLK H 2 11:47:20.00 82.889 02:57:07 Yes
165 Mario Rodriguez - AZ 15906-AU17-ARPU BB H 8 11:47:29.00 82.830 02:57:16 Missing
166 Joe Zarachowicz - MD 2169-IF17-CCC BB H 7 11:47:37.00 82.778 02:57:24 Yes
167 Bert Bruno - UT 11477-IF17-FOYS BBWF H 3 12:02:14.00 77.453 03:12:01 Yes
168 Flyhome Loft - CA 26385-AU17-ARPU BB H 9 12:17:58.00 72.438 03:27:45 Yes
169 K/N Loft - HI 7531-AU17-UIF BBWF H 4 13:00:42.00 61.603 04:10:29 Yes
170 Team Elite - IL 0590-AU17-ELIT BCWF H 1 13:43:46.00 53.533 04:53:33 Yes
171 Team Elite - IL 0591-AU17-ELIT BC H 2 13:54:19.00 51.869 05:04:06 Yes

There are 594 bird records

Note: These Race Results are unofficial and subject to change until verified by the Race Committee and declared final.

Click for forecast!